Flag for Germany Weather past 2 weeks in Ansbach, Bavaria, Germany

Now
36 °F

Clear.


Feels Like: 33 °F
Forecast: 35 / 59 °F
Wind: 3 mph from Northwest

Location: Ansbach / Katterbach


UV Index: 0 (Low)

Visibility: N/A


Pressure: 30.01 "Hg

Humidity: 93%

Dew point: 34 °F

Location of AnsbachLocation

Historic Weather in Ansbach

°F

Ansbach temperature yesterday

Maximum temperature yesterday: 55 °F (at 4:58 PM)
Minimum temperature yesterday: 31 °F (at 5:58 AM)
Average temperature yesterday: 44 °F

Past Weeks' High & Low Weather Summary

 TemperatureHumidityPressure
High70 °F (Apr 4, 3:58 PM)94% (Apr 5, 9:58 PM)30.45 "Hg (Apr 5, 9:58 PM)
Low31 °F (Apr 17, 5:58 AM)33% (Apr 17, 4:58 PM)29.70 "Hg (Apr 4, 3:58 PM)
Average50 °F66%30.10 "Hg
* Reported Apr 3 9:58 PM — Apr 18 9:58 PM, Ansbach, Weather by CustomWeather, © 2014

Note: Actual official high and low records may vary slightly from our data, if they occured in-between our weather recording intervals... More about our weather records

Advertising

Historic Weather Conditions — Data for Previous 24 hours

 ConditionsComfort  
Time TempWeatherWind HumidityBarometerVisibility
9:58 PM
Apr 18
37 °FClear.2 mph93%29.99 "HgN/A
8:58 PM39 °FBroken clouds.2 mph87%29.99 "HgN/A
7:58 PM40 °FCloudy.5 mph88%29.97 "HgN/A
6:59 PM41 °FLight rain. Partly sunny.7 mph87%29.88 "HgN/A
5:58 PM41 °FScattered clouds.2 mph81%29.94 "HgN/A
4:58 PM37 °FLight rain. Partly sunny.12 mph87%29.96 "HgN/A
3:58 PM45 °FPassing clouds.2 mph76%29.91 "HgN/A
2:58 PM43 °FPartly sunny.3 mph76%29.93 "HgN/A
1:58 PM40 °FPartly sunny.5 mph83%29.94 "HgN/A
12:58 PM39 °FScattered clouds.3 mph89%29.94 "HgN/A
11:58 AM39 °FLight rain. Mostly cloudy.9 mph93%29.94 "HgN/A
10:58 AM42 °FLight rain. Low clouds.8 mph91%29.91 "HgN/A
9:58 AM43 °FLight rain. Mostly cloudy.9 mph93%29.88 "HgN/A
8:58 AM43 °FLight rain. Passing clouds.2 mph81%29.87 "HgN/A
7:58 AM43 °FLight rain. Scattered clouds.5 mph71%29.89 "HgN/A
6:58 AM42 °FLight rain. Passing clouds.3 mph66%29.89 "HgN/A
6:04 AM43 °FClear.5 mph57%29.83 "HgN/A
5:58 AM42 °FClear.6 mph57%29.88 "HgN/A
4:58 AM42 °FClear.5 mph53%29.89 "HgN/A
3:58 AM41 °FPassing clouds.6 mph57%29.91 "HgN/A
2:58 AM41 °FPassing clouds.5 mph57%29.94 "HgN/A
1:58 AM41 °FClear.9 mph57%29.97 "HgN/A
12:58 AM41 °FClear.5 mph55%30.00 "HgN/A
11:58 PM
Apr 17
43 °FClear.3 mph53%30.02 "HgN/A
Weather by CustomWeather, © 2014

See weather overview